Location: Diamond Heights Village
(37.7458°N, 122.4416°W)
Time: 14:27:55
(UTC+00:00)

Cosmos 1844 Rocket - Pass Details

Date: 13 June 2024
Orbit: 824 x 843 km, 71.0° (Epoch: 24 July)

Event Time Altitude Azimuth Distance (km) Brightness Sun altitude
Exits shadow 12:01:40 - 245° (WSW) 2,484 4.5 -8.3°
Reaches altitude 10° 12:01:51 10° 246° (WSW) 2,428 4.5 -8.3°
Maximum altitude 12:06:27 26° 302° (WNW) 1,573 3.9 -7.5°
Drops below altitude 10° 12:11:04 10° 359° (N) 2,432 5.6 -6.8°
Sets 12:13:55 0° 11° (NNE) 3,368 6.6 -6.4°
